| time (UTC) | temp F | wind direction | speed knots | gust knots | rain 1hr in | rain 24hr in | rain mn in | humidity % | barometer mb |
| 20260510174343 | 93 | 338 | 0.9 | 4.3 | 0.00 | 0.00 | 0.00 | 13 | 1010.5 |
| 20260510173611 | 93 | 203 | 0.9 | 3.5 | 0.00 | 0.00 | 0.00 | 13 | 1010.5 |
| 20260510173111 | 92 | 225 | 0.9 | 3.5 | 0.00 | 0.00 | 0.00 | 13 | 1010.5 |
| 20260510172611 | 92 | 203 | 0.0 | 3.5 | 0.00 | 0.00 | 0.00 | 13 | 1010.5 |
| 20260510172340 | 92 | 180 | 0.0 | 2.6 | 0.00 | 0.00 | 0.00 | 15 | 1010.0 |
| 20260510171610 | 92 | 225 | 0.0 | 2.6 | 0.00 | 0.00 | 0.00 | 15 | 1010.5 |
| 20260510171110 | 91 | 180 | 0.0 | 1.7 | 0.00 | 0.00 | 0.00 | 15 | 1010.5 |
| 20260510170840 | 91 | 135 | 0.0 | 0.9 | 0.00 | 0.00 | 0.00 | 15 | 1010.5 |
| 20260510170342 | 91 | 158 | 0.0 | 0.0 | 0.00 | 0.00 | 0.00 | 17 | 1010.5 |
| 20260510165552 | 90 | 158 | 0.0 | 0.9 | 0.00 | 0.00 | 0.00 | 17 | 1010.0 |
| 20260510165053 | 89 | 180 | 0.0 | 0.9 | 0.00 | 0.00 | 0.00 | 17 | 1010.0 |
| 20260510164552 | 89 | 270 | 0.0 | 0.9 | 0.00 | 0.00 | 0.00 | 17 | 1010.5 |
| 20260510164323 | 88 | 225 | 0.0 | 0.9 | 0.00 | 0.00 | 0.00 | 15 | 1010.5 |
| 20260510163551 | 88 | 315 | 0.0 | 1.7 | 0.00 | 0.00 | 0.00 | 17 | 1010.5 |
| 20260510163045 | 87 | 270 | 0.0 | 1.7 | 0.00 | 0.00 | 0.00 | 17 | 1010.5 |
| 20260510162533 | 87 | 338 | 0.0 | 0.9 | 0.00 | 0.00 | 0.00 | 19 | 1010.0 |
| 20260510162032 | 86 | 23 | 0.0 | 2.6 | 0.00 | 0.00 | 0.00 | 19 | 1010.0 |
| 20260510161533 | 86 | 23 | 0.0 | 2.6 | 0.00 | 0.00 | 0.00 | 19 | 1010.5 |
| 20260510161034 | 85 | 90 | 0.0 | 0.0 | 0.00 | 0.00 | 0.00 | 20 | 1010.5 |
| 20260510160534 | 85 | 45 | 0.0 | 0.9 | 0.00 | 0.00 | 0.00 | 20 | 1010.5 |
| 20260510160304 | 84 | 203 | 0.0 | 0.9 | 0.00 | 0.00 | 0.00 | 22 | 1010.0 |
| 20260510155533 | 84 | 68 | 0.0 | 0.9 | 0.00 | 0.00 | 0.00 | 20 | 1010.5 |
| 20260510155032 | 83 | 338 | 0.0 | 0.9 | 0.00 | 0.00 | 0.00 | 20 | 1010.5 |
| 20260510154534 | 83 | 68 | 0.0 | 0.9 | 0.00 | 0.00 | 0.00 | 20 | 1010.0 |
| 20260510154033 | 82 | 0 | 0.0 | 1.7 | 0.00 | 0.00 | 0.00 | 22 | 1010.0 |
| 20260510153533 | 82 | 90 | 0.0 | 1.7 | 0.00 | 0.00 | 0.00 | 22 | 1010.0 |
| 20260510153032 | 81 | 45 | 0.0 | 1.7 | 0.00 | 0.00 | 0.00 | 22 | 1010.0 |
| 20260510152804 | 81 | 45 | 0.0 | 1.7 | 0.00 | 0.00 | 0.00 | 22 | 1010.0 |
| 20260510152033 | 81 | 90 | 0.0 | 2.6 | 0.00 | 0.00 | 0.00 | 24 | 1010.0 |
| 20260510151804 | 80 | 90 | 0.0 | 2.6 | 0.00 | 0.00 | 0.00 | 25 | 1010.0 |
| 20260510151033 | 80 | 90 | 0.0 | 3.5 | 0.00 | 0.00 | 0.00 | 24 | 1010.0 |
| 20260510150534 | 79 | 68 | 0.9 | 3.5 | 0.00 | 0.00 | 0.00 | 25 | 1010.0 |
| 20260510150032 | 79 | 23 | 0.9 | 3.5 | 0.00 | 0.00 | 0.00 | 25 | 1010.5 |
| 20260510145803 | 78 | 45 | 0.0 | 2.6 | 0.00 | 0.00 | 0.00 | 27 | 1010.0 |
| 20260510145306 | 78 | 90 | 0.0 | 1.7 | 0.00 | 0.00 | 0.00 | 25 | 1010.0 |
| 20260510144532 | 78 | 45 | 0.0 | 0.0 | 0.00 | 0.00 | 0.00 | 27 | 1010.0 |
| 20260510144033 | 77 | 23 | 0.0 | 0.0 | 0.00 | 0.00 | 0.00 | 27 | 1009.7 |
| 20260510143515 | 76 | 180 | 0.0 | 0.0 | 0.00 | 0.00 | 0.00 | 27 | 1010.0 |
| 20260510143015 | 76 | 135 | 0.0 | 0.0 | 0.00 | 0.00 | 0.00 | 27 | 1010.0 |
| 20260510142745 | 75 | 203 | 0.0 | 0.0 | 0.00 | 0.00 | 0.00 | 25 | 1010.0 |
| 20260510142015 | 74 | 338 | 0.0 | 0.0 | 0.00 | 0.00 | 0.00 | 27 | 1010.0 |
| 20260510141513 | 74 | 270 | 0.0 | 0.0 | 0.00 | 0.00 | 0.00 | 27 | 1010.0 |
| 20260510141013 | 73 | 23 | 0.0 | 0.0 | 0.00 | 0.00 | 0.00 | 29 | 1010.0 |
| 20260510140513 | 73 | 135 | 0.0 | 0.0 | 0.00 | 0.00 | 0.00 | 31 | 1009.7 |
| 20260510140013 | 72 | 68 | 0.0 | 0.0 | 0.00 | 0.00 | 0.00 | 30 | 1010.0 |
| 20260510135744 | 72 | 23 | 0.0 | 0.0 | 0.00 | 0.00 | 0.00 | 30 | 1009.7 |
| 20260510135014 | 71 | 158 | 0.0 | 0.9 | 0.00 | 0.00 | 0.00 | 30 | 1009.7 |
| 20260510134514 | 71 | 180 | 0.0 | 1.7 | 0.00 | 0.00 | 0.00 | 32 | 1009.7 |
| 20260510134015 | 71 | 45 | 0.0 | 1.7 | 0.00 | 0.00 | 0.00 | 31 | 1009.7 |
| 20260510133514 | 71 | 135 | 0.0 | 0.0 | 0.00 | 0.00 | 0.00 | 30 | 1009.7 |
| 20260510133013 | 71 | 23 | 0.0 | 0.0 | 0.00 | 0.00 | 0.00 | 30 | 1009.7 |
| 20260510132513 | 71 | 68 | 0.0 | 0.0 | 0.00 | 0.00 | 0.00 | 30 | 1009.3 |
| 20260510132013 | 71 | 23 | 0.0 | 1.7 | 0.00 | 0.00 | 0.00 | 29 | 1009.3 |
| 20260510131513 | 71 | 68 | 0.0 | 2.6 | 0.00 | 0.00 | 0.00 | 29 | 1009.3 |
| 20260510131014 | 70 | 90 | 0.0 | 2.6 | 0.00 | 0.00 | 0.00 | 29 | 1009.0 |
| 20260510130514 | 70 | 225 | 0.0 | 3.5 | 0.00 | 0.00 | 0.00 | 27 | 1009.0 |
| 20260510130014 | 71 | 45 | 0.0 | 3.5 | 0.00 | 0.00 | 0.00 | 30 | 1009.0 |
| 20260510125514 | 71 | 45 | 0.0 | 2.6 | 0.00 | 0.00 | 0.00 | 30 | 1008.7 |
| 20260510125014 | 71 | 45 | 0.0 | 0.0 | 0.00 | 0.00 | 0.00 | 30 | 1008.7 |
| 20260510124514 | 71 | 23 | 0.0 | 0.0 | 0.00 | 0.00 | 0.00 | 29 | 1008.7 |
| 20260510124015 | 71 | 203 | 0.0 | 0.0 | 0.00 | 0.00 | 0.00 | 29 | 1008.7 |
| 20260510123517 | 71 | 45 | 0.0 | 0.0 | 0.00 | 0.00 | 0.00 | 30 | 1008.7 |
| 20260510123513 | 71 | 23 | 0.0 | 0.0 | 0.00 | 0.00 | 0.00 | 30 | 1008.3 |
| 20260510122514 | 71 | 0 | 0.0 | 0.0 | 0.00 | 0.00 | 0.00 | 31 | 1008.7 |
| 20260510122014 | 71 | 0 | 0.0 | 0.0 | 0.00 | 0.00 | 0.00 | 31 | 1008.3 |
| 20260510121515 | 71 | 45 | 0.0 | 0.0 | 0.00 | 0.00 | 0.00 | 30 | 1008.3 |
| 20260510121014 | 71 | 23 | 0.0 | 0.0 | 0.00 | 0.00 | 0.00 | 30 | 1008.7 |
| 20260510120514 | 72 | 23 | 0.0 | 0.0 | 0.00 | 0.00 | 0.00 | 30 | 1008.3 |
| 20260510120015 | 72 | 45 | 0.0 | 0.0 | 0.00 | 0.00 | 0.00 | 30 | 1008.3 |
| 20260510115743 | 72 | 338 | 0.0 | 0.0 | 0.00 | 0.00 | 0.00 | 29 | 1008.3 |
| 20260510115013 | 72 | 90 | 0.0 | 1.7 | 0.00 | 0.00 | 0.00 | 30 | 1008.3 |
| 20260510114513 | 72 | 45 | 0.0 | 1.7 | 0.00 | 0.00 | 0.00 | 30 | 1008.3 |
| 20260510114013 | 72 | 68 | 0.0 | 0.0 | 0.00 | 0.00 | 0.00 | 30 | 1008.3 |
| 20260510113515 | 72 | 225 | 0.0 | 0.0 | 0.00 | 0.00 | 0.00 | 30 | 1008.3 |
| 20260510113014 | 73 | 180 | 0.0 | 0.0 | 0.00 | 0.00 | 0.00 | 30 | 1008.3 |
| 20260510112514 | 73 | 45 | 0.0 | 0.0 | 0.00 | 0.00 | 0.00 | 29 | 1008.3 |
| 20260510112014 | 73 | 180 | 0.0 | 0.0 | 0.00 | 0.00 | 0.00 | 30 | 1008.3 |
| 20260510111514 | 73 | 90 | 0.0 | 0.0 | 0.00 | 0.00 | 0.00 | 30 | 1008.3 |
| 20260510111012 | 73 | 90 | 0.0 | 0.0 | 0.00 | 0.00 | 0.00 | 30 | 1008.3 |
| 20260510110513 | 73 | 315 | 0.0 | 0.0 | 0.00 | 0.00 | 0.00 | 29 | 1008.3 |
| 20260510110012 | 73 | 270 | 0.0 | 0.0 | 0.00 | 0.00 | 0.00 | 29 | 1008.0 |
| 20260510105513 | 73 | 180 | 0.0 | 0.0 | 0.00 | 0.00 | 0.00 | 30 | 1008.0 |
| 20260510105013 | 73 | 248 | 0.0 | 0.0 | 0.00 | 0.00 | 0.00 | 30 | 1008.0 |
| 20260510104514 | 74 | 45 | 0.0 | 0.0 | 0.00 | 0.00 | 0.00 | 29 | 1008.0 |
| 20260510104014 | 74 | 90 | 0.0 | 0.0 | 0.00 | 0.00 | 0.00 | 30 | 1008.0 |
| 20260510103514 | 74 | 158 | 0.0 | 0.0 | 0.00 | 0.00 | 0.00 | 30 | 1008.0 |
| 20260510103015 | 74 | 248 | 0.0 | 0.0 | 0.00 | 0.00 | 0.00 | 27 | 1008.0 |
| 20260510102513 | 74 | 23 | 0.0 | 0.0 | 0.00 | 0.00 | 0.00 | 29 | 1007.6 |
| 20260510102013 | 74 | 315 | 0.0 | 0.0 | 0.00 | 0.00 | 0.00 | 27 | 1007.6 |
| 20260510101513 | 74 | 293 | 0.0 | 0.0 | 0.00 | 0.00 | 0.00 | 27 | 1007.6 |
| 20260510101013 | 75 | 0 | 0.0 | 0.0 | 0.00 | 0.00 | 0.00 | 27 | 1007.6 |
| 20260510100513 | 75 | 0 | 0.0 | 0.0 | 0.00 | 0.00 | 0.00 | 27 | 1007.6 |
| 20260510100014 | 75 | 68 | 0.0 | 0.0 | 0.00 | 0.00 | 0.00 | 27 | 1007.6 |
| 20260510095514 | 75 | 68 | 0.0 | 0.0 | 0.00 | 0.00 | 0.00 | 29 | 1007.6 |
| 20260510095014 | 76 | 23 | 0.0 | 0.9 | 0.00 | 0.00 | 0.00 | 27 | 1007.3 |
| 20260510094514 | 76 | 0 | 0.0 | 1.7 | 0.00 | 0.00 | 0.00 | 27 | 1007.6 |
| 20260510094014 | 76 | 203 | 0.0 | 1.7 | 0.00 | 0.00 | 0.00 | 27 | 1007.6 |
| 20260510093513 | 76 | 180 | 0.0 | 1.7 | 0.00 | 0.00 | 0.00 | 27 | 1007.6 |
| 20260510093013 | 76 | 180 | 0.0 | 0.0 | 0.00 | 0.00 | 0.00 | 27 | 1007.6 |
| 20260510092748 | 76 | 23 | 0.0 | 0.0 | 0.00 | 0.00 | 0.00 | 27 | 1007.3 |
| 20260510092513 | 76 | 180 | 0.0 | 0.0 | 0.00 | 0.00 | 0.00 | 29 | 1007.3 |
| 20260510091514 | 76 | 23 | 0.0 | 0.0 | 0.00 | 0.00 | 0.00 | 27 | 1007.3 |
| 20260510091013 | 77 | 23 | 0.0 | 0.0 | 0.00 | 0.00 | 0.00 | 27 | 1007.3 |
| 20260510090514 | 77 | 23 | 0.0 | 0.0 | 0.00 | 0.00 | 0.00 | 27 | 1007.3 |
| 20260510090245 | 77 | 45 | 0.0 | 0.0 | 0.00 | 0.00 | 0.00 | 27 | 1007.3 |
| 20260510085519 | 77 | 23 | 0.0 | 0.0 | 0.00 | 0.00 | 0.00 | 27 | 1007.3 |
| 20260510085514 | 77 | 68 | 0.0 | 0.0 | 0.00 | 0.00 | 0.00 | 27 | 1007.3 |
| 20260510084513 | 77 | 270 | 0.0 | 0.0 | 0.00 | 0.00 | 0.00 | 27 | 1007.3 |
| 20260510084013 | 77 | 68 | 0.0 | 0.0 | 0.00 | 0.00 | 0.00 | 25 | 1007.3 |
| 20260510083513 | 77 | 23 | 0.0 | 0.0 | 0.00 | 0.00 | 0.00 | 27 | 1007.3 |
| 20260510083015 | 78 | 23 | 0.0 | 0.0 | 0.00 | 0.00 | 0.00 | 25 | 1007.3 |
| 20260510082514 | 78 | 135 | 0.0 | 0.0 | 0.00 | 0.00 | 0.00 | 25 | 1007.3 |
| 20260510082014 | 78 | 45 | 0.0 | 0.9 | 0.00 | 0.00 | 0.00 | 27 | 1007.3 |
| 20260510081515 | 78 | 113 | 0.0 | 0.9 | 0.00 | 0.00 | 0.00 | 25 | 1007.3 |
| 20260510081018 | 78 | 158 | 0.0 | 0.0 | 0.00 | 0.00 | 0.00 | 25 | 1007.3 |
| 20260510081014 | 78 | 0 | 0.0 | 0.9 | 0.00 | 0.00 | 0.00 | 25 | 1007.3 |
| 20260510080013 | 79 | 0 | 0.0 | 0.0 | 0.00 | 0.00 | 0.00 | 25 | 1007.3 |
| 20260510075512 | 79 | 158 | 0.0 | 0.0 | 0.00 | 0.00 | 0.00 | 25 | 1007.3 |
| 20260510075013 | 79 | 180 | 0.0 | 0.0 | 0.00 | 0.00 | 0.00 | 25 | 1007.3 |
| 20260510074512 | 79 | 23 | 0.0 | 0.0 | 0.00 | 0.00 | 0.00 | 25 | 1007.3 |
| 20260510074014 | 80 | 0 | 0.0 | 0.0 | 0.00 | 0.00 | 0.00 | 25 | 1007.3 |
| 20260510073746 | 80 | 45 | 0.0 | 0.0 | 0.00 | 0.00 | 0.00 | 25 | 1007.3 |
| 20260510073014 | 80 | 45 | 0.0 | 0.0 | 0.00 | 0.00 | 0.00 | 25 | 1007.3 |
| 20260510072514 | 80 | 68 | 0.0 | 0.0 | 0.00 | 0.00 | 0.00 | 25 | 1007.3 |
| 20260510072014 | 80 | 90 | 0.0 | 0.0 | 0.00 | 0.00 | 0.00 | 24 | 1006.9 |
| 20260510071514 | 80 | 90 | 0.0 | 0.0 | 0.00 | 0.00 | 0.00 | 24 | 1006.9 |
| 20260510071244 | 80 | 45 | 0.0 | 0.0 | 0.00 | 0.00 | 0.00 | 22 | 1006.9 |
| 20260510070512 | 80 | 68 | 0.0 | 0.0 | 0.00 | 0.00 | 0.00 | 22 | 1006.9 |
| 20260510070014 | 81 | 0 | 0.0 | 0.0 | 0.00 | 0.00 | 0.00 | 22 | 1007.3 |
| 20260510065514 | 81 | 113 | 0.0 | 0.0 | 0.00 | 0.00 | 0.00 | 22 | 1006.9 |
| 20260510065014 | 81 | 23 | 0.0 | 0.0 | 0.00 | 0.00 | 0.00 | 22 | 1007.3 |
| 20260510064745 | 81 | 68 | 0.0 | 0.0 | 0.00 | 0.00 | 0.00 | 22 | 1006.9 |
| 20260510064014 | 82 | 338 | 0.0 | 0.0 | 0.00 | 0.00 | 0.00 | 22 | 1006.9 |
| 20260510063514 | 82 | 135 | 0.0 | 0.9 | 0.00 | 0.00 | 0.00 | 22 | 1006.9 |
| 20260510063244 | 82 | 68 | 0.0 | 1.7 | 0.00 | 0.00 | 0.00 | 22 | 1006.9 |
| 20260510062512 | 83 | 45 | 0.0 | 1.7 | 0.00 | 0.00 | 0.00 | 22 | 1006.9 |
| 20260510062013 | 83 | 113 | 0.0 | 0.9 | 0.00 | 0.00 | 0.00 | 22 | 1006.9 |
| 20260510061513 | 83 | 45 | 0.0 | 0.9 | 0.00 | 0.00 | 0.00 | 22 | 1006.9 |
| 20260510061014 | 83 | 45 | 0.0 | 0.9 | 0.00 | 0.00 | 0.00 | 22 | 1006.9 |
| 20260510060745 | 83 | 68 | 0.0 | 2.6 | 0.00 | 0.00 | 0.00 | 20 | 1006.9 |
| 20260510060245 | 84 | 0 | 0.0 | 2.6 | 0.00 | 0.00 | 0.00 | 22 | 1006.5 |
| 20260510055514 | 84 | 68 | 0.0 | 0.0 | 0.00 | 0.00 | 0.00 | 22 | 1006.2 |
| 20260510055014 | 84 | 45 | 0.0 | 0.0 | 0.00 | 0.00 | 0.00 | 22 | 1006.5 |
| 20260510054513 | 85 | 158 | 0.0 | 0.0 | 0.00 | 0.00 | 0.00 | 22 | 1006.5 |
| 20260510054013 | 85 | 158 | 0.0 | 0.0 | 0.00 | 0.00 | 0.00 | 22 | 1006.5 |
| 20260510053513 | 85 | 158 | 0.0 | 0.0 | 0.00 | 0.00 | 0.00 | 22 | 1006.5 |
| 20260510053012 | 85 | 180 | 0.0 | 0.0 | 0.00 | 0.00 | 0.00 | 20 | 1006.2 |
| 20260510052744 | 85 | 68 | 0.0 | 0.0 | 0.00 | 0.00 | 0.00 | 20 | 1006.2 |
| 20260510052014 | 86 | 135 | 0.0 | 0.0 | 0.00 | 0.00 | 0.00 | 20 | 1006.2 |
| 20260510051514 | 86 | 180 | 0.0 | 0.0 | 0.00 | 0.00 | 0.00 | 19 | 1006.2 |
| 20260510051244 | 87 | 68 | 0.0 | 0.0 | 0.00 | 0.00 | 0.00 | 20 | 1005.9 |
| 20260510050520 | 88 | 338 | 0.0 | 0.0 | 0.00 | 0.00 | 0.00 | 20 | 1006.2 |
| 20260510050514 | 87 | 68 | 0.0 | 0.0 | 0.00 | 0.00 | 0.00 | 20 | 1005.9 |
| 20260510050014 | 87 | 68 | 0.0 | 0.0 | 0.00 | 0.00 | 0.00 | 20 | 1006.2 |
| 20260510045243 | 88 | 338 | 0.0 | 0.0 | 0.00 | 0.00 | 0.00 | 20 | 1005.9 |
| 20260510044513 | 88 | 68 | 0.0 | 0.0 | 0.00 | 0.00 | 0.00 | 19 | 1005.9 |
| 20260510044013 | 89 | 68 | 0.0 | 0.0 | 0.00 | 0.00 | 0.00 | 19 | 1005.9 |
| 20260510043518 | 89 | 113 | 0.0 | 0.0 | 0.00 | 0.00 | 0.00 | 19 | 1005.9 |
| 20260510043514 | 89 | 68 | 0.0 | 0.0 | 0.00 | 0.00 | 0.00 | 20 | 1005.9 |
| 20260510042745 | 90 | 113 | 0.0 | 0.0 | 0.00 | 0.00 | 0.00 | 17 | 1005.9 |
| 20260510042014 | 90 | 180 | 0.0 | 0.0 | 0.00 | 0.00 | 0.00 | 17 | 1005.9 |
| 20260510041514 | 91 | 180 | 0.0 | 0.0 | 0.00 | 0.00 | 0.00 | 17 | 1005.9 |
| 20260510041013 | 91 | 180 | 0.0 | 0.0 | 0.00 | 0.00 | 0.00 | 15 | 1005.9 |
| 20260510040513 | 91 | 270 | 0.0 | 0.0 | 0.00 | 0.00 | 0.00 | 15 | 1005.9 |
| 20260510040244 | 91 | 270 | 0.0 | 0.0 | 0.00 | 0.00 | 0.00 | 15 | 1005.5 |
| 20260510035512 | 92 | 338 | 0.0 | 0.9 | 0.00 | 0.00 | 0.00 | 13 | 1005.5 |
| 20260510035014 | 92 | 203 | 0.0 | 0.9 | 0.00 | 0.00 | 0.00 | 13 | 1005.5 |
| 20260510034514 | 92 | 270 | 0.0 | 0.9 | 0.00 | 0.00 | 0.00 | 13 | 1005.5 |
| 20260510034014 | 92 | 270 | 0.0 | 1.7 | 0.00 | 0.00 | 0.00 | 12 | 1005.2 |
| 20260510033744 | 92 | 293 | 0.0 | 1.7 | 0.00 | 0.00 | 0.00 | 12 | 1005.2 |
| 20260510033014 | 93 | 248 | 0.0 | 1.7 | 0.00 | 0.00 | 0.00 | 12 | 1005.2 |
| 20260510032744 | 93 | 248 | 0.0 | 2.6 | 0.00 | 0.00 | 0.00 | 12 | 1005.2 |
| 20260510032012 | 93 | 270 | 0.0 | 3.5 | 0.00 | 0.00 | 0.00 | 12 | 1005.2 |
| 20260510031512 | 93 | 293 | 0.9 | 3.5 | 0.00 | 0.00 | 0.00 | 12 | 1005.2 |
| 20260510031013 | 94 | 293 | 0.9 | 4.3 | 0.00 | 0.00 | 0.00 | 12 | 1005.2 |
| 20260510030513 | 94 | 338 | 0.9 | 5.2 | 0.00 | 0.00 | 0.00 | 12 | 1005.2 |
| 20260510030246 | 94 | 293 | 0.9 | 5.2 | 0.00 | 0.00 | 0.00 | 12 | 1004.8 |
| 20260510025745 | 94 | 270 | 0.9 | 5.2 | 0.00 | 0.00 | 0.00 | 12 | 1004.8 |
| 20260510025014 | 95 | 270 | 0.9 | 5.2 | 0.00 | 0.00 | 0.00 | 12 | 1004.8 |
| 20260510024514 | 95 | 270 | 0.9 | 5.2 | 0.00 | 0.00 | 0.00 | 12 | 1004.8 |
| 20260510024244 | 95 | 270 | 0.9 | 5.2 | 0.00 | 0.00 | 0.00 | 12 | 1004.8 |
| 20260510023512 | 95 | 270 | 0.9 | 6.1 | 0.00 | 0.00 | 0.00 | 12 | 1004.5 |
| 20260510023012 | 96 | 338 | 0.9 | 6.1 | 0.00 | 0.00 | 0.00 | 12 | 1004.5 |
| 20260510022513 | 96 | 270 | 0.9 | 6.1 | 0.00 | 0.00 | 0.00 | 12 | 1004.5 |
| 20260510022244 | 96 | 315 | 0.9 | 4.3 | 0.00 | 0.00 | 0.00 | 12 | 1004.5 |
| 20260510021514 | 96 | 113 | 0.9 | 7.8 | 0.00 | 0.00 | 0.00 | 12 | 1004.5 |
| 20260510021013 | 97 | 315 | 0.9 | 7.8 | 0.00 | 0.00 | 0.00 | 12 | 1004.1 |
| 20260510020513 | 97 | 270 | 0.9 | 5.2 | 0.00 | 0.00 | 0.00 | 12 | 1004.5 |
| 20260510020014 | 97 | 225 | 0.9 | 6.1 | 0.00 | 0.00 | 0.00 | 12 | 1004.5 |
| 20260510015513 | 98 | 270 | 0.9 | 7.0 | 0.00 | 0.00 | 0.00 | 12 | 1004.5 |
| 20260510015014 | 98 | 248 | 1.7 | 7.0 | 0.00 | 0.00 | 0.00 | 12 | 1004.1 |
| 20260510014743 | 98 | 270 | 1.7 | 7.0 | 0.00 | 0.00 | 0.00 | 12 | 1004.1 |
| 20260510014012 | 98 | 248 | 1.7 | 7.0 | 0.00 | 0.00 | 0.00 | 12 | 1004.1 |
| 20260510013512 | 99 | 315 | 1.7 | 6.1 | 0.00 | 0.00 | 0.00 | 12 | 1004.1 |
| 20260510013013 | 99 | 248 | 1.7 | 5.2 | 0.00 | 0.00 | 0.00 | 12 | 1004.1 |
| 20260510012513 | 99 | 248 | 0.9 | 6.1 | 0.00 | 0.00 | 0.00 | 12 | 1004.5 |
| 20260510012013 | 100 | 270 | 0.9 | 8.7 | 0.00 | 0.00 | 0.00 | 12 | 1004.1 |
| 20260510011513 | 100 | 315 | 1.7 | 8.7 | 0.00 | 0.00 | 0.00 | 11 | 1004.5 |
| 20260510011248 | 100 | 270 | 1.7 | 7.0 | 0.00 | 0.00 | 0.00 | 11 | 1004.1 |
| 20260510011013 | 100 | 68 | 0.9 | 6.1 | 0.00 | 0.00 | 0.00 | 12 | 1004.1 |
| 20260510010012 | 100 | 270 | 1.7 | 7.8 | 0.00 | 0.00 | 0.00 | 11 | 1004.1 |
| 20260510005512 | 101 | 270 | 1.7 | 7.8 | 0.00 | 0.00 | 0.00 | 11 | 1004.1 |
| 20260510005012 | 101 | 248 | 0.9 | 6.1 | 0.00 | 0.00 | 0.00 | 11 | 1004.1 |
| 20260510004512 | 101 | 293 | 1.7 | 7.0 | 0.00 | 0.00 | 0.00 | 11 | 1004.5 |
| 20260510004012 | 101 | 293 | 0.9 | 7.0 | 0.00 | 0.00 | 0.00 | 11 | 1004.1 |
| 20260510003512 | 101 | 225 | 0.9 | 6.1 | 0.00 | 0.00 | 0.00 | 11 | 1004.5 |
| 20260510003243 | 102 | 225 | 1.7 | 7.0 | 0.00 | 0.00 | 0.00 | 11 | 1004.5 |
| 20260510002511 | 102 | 203 | 1.7 | 7.8 | 0.00 | 0.00 | 0.00 | 11 | 1004.1 |
| 20260510002011 | 102 | 180 | 0.9 | 7.8 | 0.00 | 0.00 | 0.00 | 11 | 1004.5 |
| 20260510001511 | 102 | 248 | 1.7 | 7.8 | 0.00 | 0.00 | 0.00 | 11 | 1004.5 |
| 20260510001011 | 103 | 180 | 1.7 | 9.6 | 0.00 | 0.00 | 0.00 | 10 | 1004.5 |
| 20260510000511 | 103 | 203 | 1.7 | 9.6 | 0.00 | 0.00 | 0.00 | 10 | 1004.1 |
| 20260510000242 | 103 | 225 | 0.9 | 5.2 | 0.00 | 0.00 | 0.00 | 10 | 1004.1 |
| 20260509235511 | 103 | 270 | 0.9 | 6.1 | 0.00 | 0.00 | 0.00 | 11 | 1004.5 |
| 20260509235012 | 103 | 270 | 0.9 | 7.0 | 0.00 | 0.00 | 0.00 | 11 | 1004.5 |
| 20260509234511 | 103 | 293 | 0.9 | 7.0 | 0.00 | 0.00 | 0.00 | 11 | 1004.5 |
| 20260509234241 | 103 | 225 | 0.9 | 6.1 | 0.00 | 0.00 | 0.00 | 11 | 1004.5 |
| 20260509233511 | 103 | 270 | 1.7 | 6.1 | 0.00 | 0.00 | 0.00 | 10 | 1004.5 |
| 20260509233241 | 103 | 248 | 0.9 | 6.1 | 0.00 | 0.00 | 0.00 | 10 | 1004.8 |
| 20260509232742 | 103 | 225 | 1.7 | 7.8 | 0.00 | 0.00 | 0.00 | 10 | 1004.8 |
| 20260509232010 | 103 | 248 | 1.7 | 15.6 | 0.00 | 0.00 | 0.00 | 11 | 1004.8 |
| 20260509231511 | 103 | 225 | 1.7 | 15.6 | 0.00 | 0.00 | 0.00 | 12 | 1004.1 |
| 20260509231010 | 103 | 338 | 0.9 | 5.2 | 0.00 | 0.00 | 0.00 | 12 | 1004.8 |
| 20260509230512 | 103 | 203 | 1.7 | 5.2 | 0.00 | 0.00 | 0.00 | 10 | 1004.8 |
| 20260509230011 | 103 | 45 | 0.9 | 5.2 | 0.00 | 0.00 | 0.00 | 12 | 1004.8 |
| 20260509225509 | 104 | 180 | 0.9 | 7.8 | 0.00 | 0.00 | 0.00 | 10 | 1004.8 |
| 20260509225010 | 104 | 68 | 0.9 | 7.8 | 0.00 | 0.00 | 0.00 | 12 | 1005.2 |
| 20260509224509 | 104 | 315 | 1.7 | 6.1 | 0.00 | 0.00 | 0.00 | 11 | 1005.2 |
| 20260509224241 | 104 | 68 | 0.9 | 6.1 | 0.00 | 0.00 | 0.00 | 12 | 1005.2 |
| 20260509223509 | 104 | 270 | 1.7 | 9.6 | 0.00 | 0.00 | 0.00 | 12 | 1005.5 |
| 20260509223011 | 103 | 338 | 1.7 | 9.6 | 0.00 | 0.00 | 0.00 | 12 | 1005.5 |
| 20260509222741 | 103 | 270 | 1.7 | 6.1 | 0.00 | 0.00 | 0.00 | 12 | 1005.5 |
| 20260509222242 | 103 | 225 | 0.9 | 7.8 | 0.00 | 0.00 | 0.00 | 11 | 1005.5 |
| 20260509221510 | 103 | 270 | 1.7 | 7.8 | 0.00 | 0.00 | 0.00 | 12 | 1005.5 |
| 20260509221009 | 103 | 225 | 0.9 | 6.1 | 0.00 | 0.00 | 0.00 | 12 | 1005.9 |
| 20260509220509 | 103 | 45 | 0.9 | 5.2 | 0.00 | 0.00 | 0.00 | 12 | 1005.5 |
| 20260509220009 | 103 | 135 | 0.9 | 5.2 | 0.00 | 0.00 | 0.00 | 12 | 1005.9 |
| 20260509215508 | 103 | 338 | 0.9 | 6.1 | 0.00 | 0.00 | 0.00 | 12 | 1005.9 |
| 20260509215009 | 103 | 293 | 1.7 | 7.0 | 0.00 | 0.00 | 0.00 | 12 | 1006.2 |
| 20260509214510 | 103 | 203 | 1.7 | 7.0 | 0.00 | 0.00 | 0.00 | 11 | 1005.9 |
| 20260509214010 | 102 | 293 | 0.9 | 4.3 | 0.00 | 0.00 | 0.00 | 12 | 1006.2 |
| 20260509213510 | 102 | 68 | 0.9 | 7.0 | 0.00 | 0.00 | 0.00 | 12 | 1006.2 |
| 20260509213010 | 102 | 270 | 0.9 | 7.0 | 0.00 | 0.00 | 0.00 | 12 | 1006.5 |
| 20260509212740 | 102 | 45 | 1.7 | 7.0 | 0.00 | 0.00 | 0.00 | 12 | 1006.5 |
| 20260509212010 | 102 | 180 | 1.7 | 7.8 | 0.00 | 0.00 | 0.00 | 12 | 1006.5 |
| 20260509211504 | 101 | 270 | 1.7 | 7.8 | 0.00 | 0.00 | 0.00 | 12 | 1006.5 |
| 20260509210950 | 101 | 270 | 0.0 | 5.2 | 0.00 | 0.00 | 0.00 | 13 | 1006.5 |
| 20260509210721 | 101 | 338 | 0.9 | 5.2 | 0.00 | 0.00 | 0.00 | 12 | 1006.5 |
| 20260509210221 | 101 | 45 | 0.9 | 6.1 | 0.00 | 0.00 | 0.00 | 13 | 1006.9 |
| 20260509205722 | 101 | 180 | 0.9 | 7.0 | 0.00 | 0.00 | 0.00 | 12 | 1007.3 |
| 20260509204951 | 101 | 225 | 1.7 | 7.0 | 0.00 | 0.00 | 0.00 | 12 | 1007.3 |
| 20260509204451 | 101 | 135 | 0.9 | 6.1 | 0.00 | 0.00 | 0.00 | 12 | 1007.3 |
| 20260509203949 | 101 | 270 | 1.7 | 6.1 | 0.00 | 0.00 | 0.00 | 12 | 1007.3 |
| 20260509203448 | 100 | 270 | 0.9 | 7.0 | 0.00 | 0.00 | 0.00 | 12 | 1007.3 |
| 20260509202949 | 100 | 270 | 1.7 | 7.0 | 0.00 | 0.00 | 0.00 | 12 | 1007.6 |
| 20260509202449 | 100 | 23 | 0.9 | 7.8 | 0.00 | 0.00 | 0.00 | 12 | 1007.3 |
| 20260509201949 | 100 | 203 | 1.7 | 7.8 | 0.00 | 0.00 | 0.00 | 12 | 1007.6 |
| 20260509201450 | 100 | 23 | 0.9 | 6.1 | 0.00 | 0.00 | 0.00 | 13 | 1007.6 |
| 20260509200949 | 100 | 23 | 0.9 | 4.3 | 0.00 | 0.00 | 0.00 | 13 | 1008.0 |
| 20260509200450 | 100 | 293 | 0.9 | 3.5 | 0.00 | 0.00 | 0.00 | 13 | 1008.0 |
| 20260509195949 | 100 | 135 | 0.9 | 5.2 | 0.00 | 0.00 | 0.00 | 15 | 1008.0 |
| 20260509195449 | 99 | 293 | 0.9 | 5.2 | 0.00 | 0.00 | 0.00 | 15 | 1008.0 |
| 20260509195220 | 99 | 225 | 0.9 | 4.3 | 0.00 | 0.00 | 0.00 | 15 | 1008.3 |
| 20260509194719 | 99 | 23 | 0.9 | 4.3 | 0.00 | 0.00 | 0.00 | 13 | 1008.0 |
| 20260509193949 | 99 | 270 | 0.9 | 4.3 | 0.00 | 0.00 | 0.00 | 15 | 1008.3 |
| 20260509193448 | 98 | 270 | 0.9 | 4.3 | 0.00 | 0.00 | 0.00 | 15 | 1008.3 |
| 20260509192950 | 98 | 68 | 0.9 | 3.5 | 0.00 | 0.00 | 0.00 | 13 | 1008.3 |
| 20260509192449 | 98 | 0 | 0.9 | 5.2 | 0.00 | 0.00 | 0.00 | 15 | 1008.3 |
| 20260509191949 | 98 | 338 | 0.9 | 5.2 | 0.00 | 0.00 | 0.00 | 13 | 1008.3 |
| 20260509191452 | 97 | 158 | 0.0 | 5.2 | 0.00 | 0.00 | 0.00 | 15 | 1008.7 |
| 20260509190950 | 97 | 270 | 0.9 | 5.2 | 0.00 | 0.00 | 0.00 | 15 | 1008.7 |
| 20260509190718 | 97 | 270 | 0.9 | 4.3 | 0.00 | 0.00 | 0.00 | 15 | 1008.7 |
| 20260509185948 | 97 | 225 | 0.0 | 3.5 | 0.00 | 0.00 | 0.00 | 15 | 1008.7 |
| 20260509185449 | 97 | 135 | 0.0 | 4.3 | 0.00 | 0.00 | 0.00 | 15 | 1008.7 |
| 20260509184948 | 97 | 180 | 0.9 | 4.3 | 0.00 | 0.00 | 0.00 | 13 | 1008.7 |
| 20260509184720 | 97 | 158 | 0.0 | 3.5 | 0.00 | 0.00 | 0.00 | 15 | 1009.0 |
| 20260509183949 | 97 | 203 | 0.0 | 3.5 | 0.00 | 0.00 | 0.00 | 15 | 1009.0 |
| 20260509183450 | 97 | 225 | 0.9 | 3.5 | 0.00 | 0.00 | 0.00 | 15 | 1009.0 |
| 20260509182949 | 96 | 180 | 0.0 | 3.5 | 0.00 | 0.00 | 0.00 | 15 | 1009.3 |
| 20260509182438 | 96 | 90 | 0.0 | 5.2 | 0.00 | 0.00 | 0.00 | 15 | 1009.0 |
| 20260509182201 | 96 | 158 | 0.9 | 5.2 | 0.00 | 0.00 | 0.00 | 15 | 1009.3 |
| 20260509181430 | 96 | 45 | 0.9 | 4.3 | 0.00 | 0.00 | 0.00 | 15 | 1009.3 |
| 20260509180930 | 96 | 270 | 0.9 | 4.3 | 0.00 | 0.00 | 0.00 | 15 | 1009.3 |
| 20260509180429 | 95 | 158 | 0.0 | 2.6 | 0.00 | 0.00 | 0.00 | 15 | 1009.7 |
| 20260509175931 | 95 | 270 | 0.0 | 2.6 | 0.00 | 0.00 | 0.00 | 15 | 1009.7 |
| 20260509175431 | 95 | 180 | 0.0 | 2.6 | 0.00 | 0.00 | 0.00 | 17 | 1009.7 |
| 20260509174930 | 95 | 338 | 0.0 | 2.6 | 0.00 | 0.00 | 0.00 | 17 | 1009.7 |
| 20260509174430 | 94 | 113 | 0.0 | 4.3 | 0.00 | 0.00 | 0.00 | 17 | 1009.7 |